Hatteras, NC

11:20 PM EDT on March 22, 2017 (GMT -0400)
Mitchell

Weather History for KHSE - February, 2012

Change the Weather History Date:

Wednesday, February 29, 2012

  Actual Average Record
Temperature  
Mean Temperature 61 °F 48 °F  
Max Temperature 70 °F 55 °F 73 °F (1976)
Min Temperature 51 °F 41 °F 26 °F (1988)
Degree Days  
Heating Degree Days 4 17  
Month to date heating degree days 400 528  
Since 1 July heating degree days 1411 1941  
Cooling Degree Days 0 0  
Month to date cooling degree days 0 0  
Year to date cooling degree days 0 0  
Growing Degree Days 11 (Base 50)    
Moisture  
Dew Point 58 °F    
Average Humidity 83    
Maximum Humidity 89    
Minimum Humidity 76    
Precipitation  
Precipitation T in 0.14 in 0.84 in (1968)
Month to date precipitation 3.43 4.02  
Year to date precipitation 8.46 9.26  
Snow  
Snow 0.00 in - - ()
Month to date snowfall T  
Since 1 July snowfall T  
Snow Depth 0.00 in    
Sea Level Pressure  
Sea Level Pressure 30.11 in    
Wind  
Wind Speed 10 mph (SSW)    
Max Wind Speed 21 mph    
Max Gust Speed 29 mph    
Visibility 8 miles    
Events      
T = Trace of Precipitation, MM = Missing Value Source: NWS Daily Summary

Daily Weather History Graph

Daily Weather History Graph

Search for Another Location

Airport or City:

Trip Planner

Search our weather history database for the weather conditions in past years. The results will help you decide how hot, cold, wet, or windy it might be!

Date:

Astronomy

Feb. 29, 2012 Rise Set
Actual Time 6:32 AM EST 5:57 PM EST
Civil Twilight 6:07 AM EST 6:23 PM EST
Nautical Twilight 5:37 AM EST 6:52 PM EST
Astronomical Twilight 5:08 AM EST 7:21 PM EST
Moon 10:38 AM EST (2/29) 12:25 AM EST (2/29)
Length of Visible Light 12h 15m
Length of Day
11h 24m
Waxing Crescent, 47% of the Moon is Illuminated
Feb 29
Waxing Crescent
Feb 29
First Quarter
Mar 8
Full
Mar 14
Last Quarter
Mar 22
New

Hourly Weather History & Observations

Time (EST) Temp. Dew Point Humidity Pressure Visibility Wind Dir Wind Speed Gust Speed Precip Events Conditions
12:51 AM 53.1 °F 50.0 °F 89% 30.33 in 10.0 mi NE 4.6 mph - N/A   Clear
1:51 AM 54.0 °F 50.0 °F 86% 30.31 in 10.0 mi NE 5.8 mph - N/A   Clear
2:51 AM 53.1 °F 48.9 °F 86% 30.27 in 10.0 mi East 4.6 mph - N/A   Clear
3:51 AM 53.1 °F 48.9 °F 86% 30.26 in 9.0 mi ESE 5.8 mph - N/A   Clear
4:51 AM 57.0 °F 53.1 °F 87% 30.27 in 8.0 mi East 5.8 mph - N/A   Clear
5:51 AM 60.1 °F 55.0 °F 83% 30.24 in 10.0 mi ESE 8.1 mph - N/A   Clear
6:51 AM 62.1 °F 57.0 °F 84% 30.25 in 10.0 mi SSE 5.8 mph - N/A   Mostly Cloudy
7:51 AM 63.0 °F 57.0 °F 81% 30.24 in 10.0 mi SSE 6.9 mph - N/A   Mostly Cloudy
8:51 AM 66.0 °F 59.0 °F 78% 30.21 in 10.0 mi SSE 10.4 mph - N/A   Mostly Cloudy
9:51 AM 66.0 °F 59.0 °F 78% 30.20 in 10.0 mi South 11.5 mph - N/A   Overcast
10:51 AM 68.0 °F 60.1 °F 76% 30.17 in 10.0 mi South 8.1 mph - N/A   Partly Cloudy
11:51 AM 68.0 °F 61.0 °F 78% 30.15 in 9.0 mi SW 6.9 mph - N/A   Overcast
12:51 PM 69.1 °F 62.1 °F 78% 30.09 in 10.0 mi SSW 13.8 mph 18.4 mph N/A   Clear
1:51 PM 66.9 °F 59.0 °F 76% 30.05 in 10.0 mi SW 10.4 mph - N/A   Clear
2:51 PM 68.0 °F 60.1 °F 76% 30.05 in 10.0 mi SW 9.2 mph - N/A   Clear
3:51 PM 66.9 °F 61.0 °F 81% 30.03 in 8.0 mi SW 11.5 mph 18.4 mph N/A   Clear
4:51 PM 66.9 °F 62.1 °F 84% 30.01 in 7.0 mi SW 13.8 mph - N/A   Partly Cloudy
5:51 PM 66.9 °F 62.1 °F 84% 29.99 in 5.0 mi SW 10.4 mph 18.4 mph N/A   Haze
6:51 PM 66.0 °F 62.1 °F 87% 29.99 in 6.0 mi SW 15.0 mph - N/A   Partly Cloudy
7:51 PM 66.0 °F 63.0 °F 90% 29.97 in 6.0 mi SW 13.8 mph 21.9 mph N/A   Clear
8:51 PM 66.9 °F 62.1 °F 84% 29.94 in 7.0 mi SW 17.3 mph 25.3 mph N/A   Clear
9:51 PM 66.0 °F 62.1 °F 87% 29.95 in 6.0 mi WSW 15.0 mph 23.0 mph N/A   Clear
10:51 PM 66.0 °F 63.0 °F 90% 29.92 in 6.0 mi SW 18.4 mph 24.2 mph 0.00 in   Partly Cloudy
11:04 PM 66.2 °F 62.6 °F 88% 29.93 in 5.0 mi WSW 17.3 mph 24.2 mph N/A   Scattered Clouds
11:51 PM 66.0 °F 62.1 °F 87% 29.92 in 5.0 mi WSW 18.4 mph 25.3 mph N/A   Mostly Cloudy